Weather History for Port Angeles, WA

Change the Weather History Date:

Sunday, January 5, 2014

  Actual Average Record
Temperature  
Mean Temperature 34 °F -  
Max Temperature 42 °F 44 °F 51 °F (1978)
Min Temperature 27 °F 32 °F 15 °F (2004)
Degree Days  
Heating Degree Days 30    
Moisture  
Dew Point 30 °F    
Average Humidity 85    
Maximum Humidity 96    
Minimum Humidity 62    
Precipitation  
Precipitation 0.00 in - - ()
Sea Level Pressure  
Sea Level Pressure 30.47 in    
Wind  
Wind Speed 5 mph (SE)    
Max Wind Speed 8 mph    
Max Gust Speed -    
Visibility 10 miles    
Events      
Averages and records for this station are not official NWS values.
T = Trace of Precipitation, MM = Missing Value Source: NWS Daily Summary

Daily Weather History Graph

Daily Weather History Graph

Search for Another Location

Airport:

Trip Planner

Search our weather history database for the weather conditions in past years. The results will help you decide how hot, cold, wet, or windy it might be!

Date:

Astronomy

Jan. 05, 2014 Rise Set
Actual Time 8:03 AM PST 4:35 PM PST
Civil Twilight 7:27 AM PST 5:11 PM PST
Nautical Twilight 6:48 AM PST 5:50 PM PST
Astronomical Twilight 6:10 AM PST 6:28 PM PST
Moon 10:23 AM PST (1/5) 10:37 PM PST (1/5)
Length of Visible Light 9h 43m
Length of Day
8h 31m
Waxing Crescent, 25% of the Moon is Illuminated
Jan 5
Waxing Crescent
Jan 7
First Quarter
Jan 15
Full
Jan 23
Last Quarter
Jan 30
New

Hourly Weather History & Observations

Time (PST) Temp. Windchill Dew Point Humidity Pressure Visibility Wind Dir Wind Speed Gust Speed Precip Events Conditions
12:53 AM 34.0 °F - 32.0 °F 92% 30.49 in 10.0 mi Calm Calm - N/A   Overcast
1:26 AM 33.1 °F 26.9 °F 30.0 °F 89% 30.48 in 10.0 mi SE 6.9 mph - N/A   Scattered Clouds
1:39 AM 35.1 °F 30.1 °F 30.9 °F 85% 30.48 in 10.0 mi SSE 5.8 mph - N/A   Mostly Cloudy
1:53 AM 33.1 °F 27.7 °F 30.0 °F 89% 30.50 in 10.0 mi SE 5.8 mph - N/A   Overcast
2:53 AM 36.0 °F 32.1 °F 30.9 °F 82% 30.50 in 10.0 mi ESE 4.6 mph - N/A   Overcast
3:53 AM 37.0 °F 33.3 °F 32.0 °F 82% 30.50 in 10.0 mi SE 4.6 mph - N/A   Overcast
4:53 AM 33.1 °F 28.7 °F 30.0 °F 89% 30.50 in 10.0 mi SSE 4.6 mph - N/A   Overcast
5:21 AM 28.9 °F 25.2 °F 27.0 °F 92% 30.48 in 10.0 mi SSE 3.5 mph - N/A   Scattered Clouds
5:53 AM 30.0 °F - 28.0 °F 92% 30.50 in 10.0 mi Calm Calm - N/A   Partly Cloudy
6:53 AM 27.0 °F 20.5 °F 25.0 °F 92% 30.50 in 10.0 mi SSE 5.8 mph - N/A   Partly Cloudy
7:29 AM 30.0 °F 24.1 °F 28.9 °F 96% 30.49 in 10.0 mi SSE 5.8 mph - N/A   Mostly Cloudy
7:53 AM 30.0 °F 25.2 °F 28.0 °F 92% 30.50 in 10.0 mi SSE 4.6 mph - N/A   Overcast
8:12 AM 32.0 °F 26.4 °F 28.9 °F 88% 30.49 in 10.0 mi SE 5.8 mph - N/A   Scattered Clouds
8:20 AM 30.9 °F 25.2 °F 28.0 °F 89% 30.50 in 10.0 mi SE 5.8 mph - N/A   Mostly Cloudy
8:30 AM 30.9 °F 26.2 °F 28.9 °F 92% 30.50 in 10.0 mi SSE 4.6 mph - N/A   Scattered Clouds
8:53 AM 30.9 °F 25.2 °F 28.9 °F 92% 30.52 in 10.0 mi SSE 5.8 mph - N/A   Partly Cloudy
9:06 AM 32.0 °F 27.5 °F 30.0 °F 92% 30.51 in 10.0 mi SSE 4.6 mph - N/A   Mostly Cloudy
9:53 AM 39.9 °F 36.7 °F 33.1 °F 77% 30.53 in 10.0 mi ESE 4.6 mph - N/A   Overcast
10:34 AM 39.0 °F 34.8 °F 33.1 °F 79% 30.52 in 10.0 mi East 5.8 mph - N/A   Overcast
10:53 AM 39.0 °F 35.7 °F 33.1 °F 79% 30.53 in 10.0 mi East 4.6 mph - N/A   Overcast
11:23 AM 39.9 °F 35.8 °F 34.0 °F 79% 30.51 in 10.0 mi ENE 5.8 mph - N/A   Overcast
11:53 AM 41.0 °F 36.4 °F 33.1 °F 73% 30.51 in 10.0 mi East 6.9 mph - N/A   Overcast
12:27 PM 41.0 °F 37.1 °F 34.0 °F 76% 30.49 in 10.0 mi East 5.8 mph - N/A   Overcast
12:53 PM 41.0 °F 38.0 °F 34.0 °F 76% 30.49 in 10.0 mi ENE 4.6 mph - N/A   Mostly Cloudy
1:10 PM 41.0 °F 37.1 °F 32.0 °F 70% 30.47 in 10.0 mi East 5.8 mph - N/A   Partly Cloudy
1:53 PM 42.1 °F 37.1 °F 30.0 °F 62% 30.48 in 10.0 mi East 8.1 mph - N/A   Clear
2:53 PM 41.0 °F 35.8 °F 32.0 °F 70% 30.47 in 10.0 mi East 8.1 mph - N/A   Clear
3:53 PM 39.9 °F 36.7 °F 32.0 °F 73% 30.46 in 10.0 mi East 4.6 mph - N/A   Clear
4:53 PM 36.0 °F 32.1 °F 30.0 °F 79% 30.44 in 10.0 mi SE 4.6 mph - N/A   Clear
5:53 PM 30.9 °F 26.2 °F 28.9 °F 92% 30.44 in 10.0 mi SSE 4.6 mph - N/A   Clear
6:53 PM 30.9 °F 25.2 °F 28.0 °F 89% 30.43 in 10.0 mi SE 5.8 mph - N/A   Clear
7:53 PM 30.0 °F 24.1 °F 28.0 °F 92% 30.42 in 10.0 mi SE 5.8 mph - N/A   Clear
8:53 PM 30.0 °F 23.2 °F 28.0 °F 92% 30.40 in 10.0 mi SE 6.9 mph - N/A   Clear
9:53 PM 28.9 °F 21.9 °F 27.0 °F 92% 30.39 in 10.0 mi SE 6.9 mph - N/A   Clear
10:33 PM 30.0 °F 24.1 °F 28.0 °F 92% 30.37 in 10.0 mi SE 5.8 mph - N/A   Mostly Cloudy
10:53 PM 33.1 °F 26.9 °F 30.9 °F 92% 30.38 in 10.0 mi SE 6.9 mph - N/A   Overcast
11:53 PM 35.1 °F 30.1 °F 32.0 °F 89% 30.35 in 10.0 mi ESE 5.8 mph - N/A   Overcast